Location: Arbon
(43.0005°N, 0.7472°E)
Time: 18:14:10
(UTC+00:00)

Altair - Visible Passes

Search period start: 04 December 2020 00:00
Search period end: 14 December 2020 00:00
Orbit: 1502 x 1682 km, 47.2° (Epoch: 03 December)

Date Brightness Start Highest point End Pass type
(mag) Time Alt. Az. Time Alt. Az. Time Alt. Az.
04 Dec 7.7 18:07:44 10° SW 18:16:52 52° SE 18:21:15 31° E visible
04 Dec 7.7 20:11:52 10° WSW 20:19:17 59° W 20:19:17 59° W visible
05 Dec 7.8 17:42:42 10° SSW 17:51:46 49° SE 17:57:36 22° ENE visible
05 Dec 7.4 19:46:38 10° WSW 19:55:38 79° WNW 19:55:38 79° WNW visible
05 Dec 9.4 21:52:11 10° WNW 21:53:39 16° WNW 21:53:39 16° WNW visible
06 Dec 8.0 17:17:42 10° SSW 17:26:40 45° SE 17:33:54 16° ENE visible
06 Dec 7.3 19:21:24 10° WSW 19:30:57 85° NNW 19:31:56 75° NE visible
06 Dec 9.1 21:26:56 10° W 21:29:58 23° WNW 21:29:58 23° WNW visible
07 Dec 8.1 16:52:44 10° SSW 17:01:34 42° SE 17:10:08 10° ENE visible
07 Dec 7.3 18:56:11 10° WSW 19:05:46 88° NNW 19:08:13 56° ENE visible
07 Dec 8.7 21:01:41 10° W 21:06:14 32° WNW 21:06:14 32° WNW visible
08 Dec 7.4 18:30:58 10° WSW 18:40:35 89° SSE 18:44:28 41° ENE visible
08 Dec 8.2 20:36:26 10° W 20:42:29 44° WNW 20:42:29 44° WNW visible
09 Dec 7.4 18:05:46 10° WSW 18:15:24 86° SSE 18:20:43 30° ENE visible
09 Dec 7.8 20:11:11 10° W 20:18:44 57° NW 20:18:44 57° NW visible
09 Dec 9.7 22:16:30 10° WNW 22:16:45 11° WNW 22:16:45 11° WNW visible
10 Dec 7.5 17:40:34 10° WSW 17:50:14 82° SSE 17:56:56 22° ENE visible
10 Dec 7.5 19:45:55 10° W 19:54:57 68° NNW 19:54:57 68° NNW visible
10 Dec 9.4 21:51:17 10° WNW 21:52:58 17° WNW 21:52:58 17° WNW visible
11 Dec 7.6 17:15:23 10° SW 17:25:04 79° SSE 17:33:09 15° ENE visible
11 Dec 7.4 19:20:39 10° W 19:30:09 69° N 19:31:10 65° NNE visible
11 Dec 9.0 21:26:06 10° WNW 21:29:11 24° WNW 21:29:11 24° WNW visible
12 Dec 7.6 16:50:12 10° SW 16:59:54 75° SSE 17:09:15 10° ENE visible
12 Dec 7.5 18:55:22 10° W 19:04:55 70° N 19:07:22 52° NE visible
12 Dec 8.6 21:00:53 10° WNW 21:05:23 33° WNW 21:05:23 33° WNW visible
13 Dec 7.5 18:30:06 10° W 18:39:42 71° N 18:43:34 40° ENE visible
13 Dec 8.2 20:35:39 10° WNW 20:41:35 44° WNW 20:41:35 44° WNW visible
